METEOR 2-11 DEB, 40704

Orbit data source: Space-Track

METEOR 2-11 DEB, 40704 is space debris in LEO originally from a launch on Thu, 05 Jul 1984 UTC launched from the Plesetsk Missile And Space Complex (PKMTR). Debris objects in space refer to the collection of defunct objects orbiting the Earth. Examples of debris include non-operational satellites, rocket bodies, and fragments generated from explosions, collisions, or faulty payload assembly.

Loading next visibility...
Identifier
40704, 1984-072F
Orbit
LEO
Country
Flag of CISCIS
Related business
Manufacturer
Unknown
Mission
Spacecraft
Bus & Motor
Unknown
Mass
Unknown
Launch date (UTC)
1984-07-05 (41 years ago)
Launch vehicle
Unknown
Launch site
Plesetsk Missile And Space Complex (PKMTR)
Object type
Payload
Rocket body
Debris
Shape & HBR
Unknown
Radar Cross Section
Small (<0.1 m²)

Expand to show TLE details & history
Last TLE update: 5 days ago

TLE from 5 days ago
0 METEOR 2-11 DEB
1 40704U 84072F   25256.24665369  .00002278  00000-0  15929-2 0  9994
2 40704  82.5160 231.7330 0033054  50.8405 309.5691 13.97818373528676
Epoch: 2025-09-13T05:55Z
TLE epoch observation values (Epoch: 2025-09-13T05:55:10.878Z)
Latitude
-0.00007°
Longitude
150.4549°
Altitude
888.997 km
Speed
7.415 km/s
True Right ascension
15h 26m 55s
True Declination
0° 00' 00"
Sunlit
Object was in daylight at epoch
Visualization orbit readout
Latitude
Unknown
Longitude
Unknown
Altitude
Unknown
Speed
Unknown
Apparent Right ascension
Unknown
Apparent Declination
Unknown
Sunlit
N/A
Visualization observer readout
Local Sidereal Time
03:22:18
Azimuth
Unknown
Elevation
Unknown
Doppler factor
Unknown
Orbital elements
Apogee altitude
922.546 km
Perigee altitude
874.442 km
Semi-major axis
7,276.631 km
Eccentricity
0.00331
Inclination
82.516°
RAAN
231.733°
Arg. of periapsis
50.8405°
True anomaly
309.27635°
Mean anomaly
309.5691°
Eccentric anomaly
309.4228°
Mean motion
3.49661 °/min
Orbital period
102.96 mins
BSTAR
0.0015929
Loading maneuver chart data...
Computing Atmospheric mass density...
Loading historical data...
Loading historical data...
Loading historical data...
Loading historical data...
Loading historical data...
Loading historical data...
Loading historical data...

Documentation

Showing up to 5 results
|